[[{"header":{"parameterUnit":"m.s-1","parameterCategory":1,"la1":30.2991,"la2":30.254,"lo1":-89.0895,"lo2":-89.0444,"dy":0.0017,"dx":0.0017,"nx":28,"ny":28,"refTime":"2023-08-08T21:00:00:Z","depth":0,"parameterNumber":2,"parameterNumberName":"U-component_of_WINDS"},"data":[0,0,0,0,0,0,0,0,0,0,0,0,0,0,0,0,0,0,0,0,0,0,0,0,0,0,0,0,0,0,0,0,0,0,0,0,0,0,0,0,0,0,0,0,0,0,0,0,0,0,0,0,0,0,0,0,0,0,2.6795,2.6796,0,2.6848,2.6849,2.685,2.6817,2.6815,2.6813,2.6812,2.6874,2.6877,2.688,0,0,0,0,0,0,0,0,0,0,0,0,0,2.6674,2.6676,2.6795,2.6796,2.6797,2.6848,2.6849,2.685,2.6817,2.6815,2.6813,2.6811,2.6873,2.6876,2.688,0,0,0,0,0,0,0,0,0,0,0,0,0,2.6727,2.6677,2.6795,2.6786,2.6786,2.6848,2.6849,2.685,2.6817,2.6815,2.6812,2.681,2.6872,2.6876,2.6881,2.6957,0,0,2.6895,2.6897,0,0,0,0,0,0,0,0,2.6724,2.6731,2.6787,2.6787,2.6787,2.6823,2.6829,2.6886,2.6818,2.6806,2.6812,2.6809,2.6859,2.6865,2.688,2.696,2.6962,2.6895,2.6898,2.69,2.6902,0,0,0,0,0,0,0,2.672,2.6729,2.6816,2.6788,2.6788,2.6782,2.6787,2.6839,2.6845,2.6806,2.6804,2.6811,2.6859,2.6876,2.6882,2.6963,2.6895,2.6899,2.6902,2.6904,2.7111,2.7114,0,0,0,0,0,0,2.6716,2.6726,2.6815,2.6818,2.6749,2.6786,2.6792,2.6814,2.6845,2.6847,2.6812,2.6809,2.6869,2.6876,2.6884,2.6977,2.69,2.6905,2.6907,2.7108,2.7112,2.7115,0,0,0,0,0,0,2.6714,2.6724,2.6813,2.6771,2.6782,2.6791,2.6816,2.6816,2.6833,2.6849,2.6851,2.6828,2.6867,2.6877,2.6939,2.6978,2.6907,2.6911,2.7105,2.7109,2.7113,2.7162,0,0,0,0,0,0,2.671,2.6724,2.6751,2.6772,2.6784,2.6865,2.6818,2.6819,2.684,2.6836,2.6864,2.6867,2.6866,2.6932,2.6944,2.6983,2.6915,2.7102,2.7107,2.7112,2.7157,2.7167,2.7176,0,0,0,0,0,2.6706,2.6764,2.6752,2.6763,2.6818,2.6867,2.6874,2.6871,2.6843,2.6872,2.6883,2.6866,2.6972,2.6939,2.6951,2.6993,2.7099,2.7106,2.7111,2.7153,2.7165,2.7176,0,0,0,0,0,0,2.6749,2.6766,2.6754,2.6819,2.6842,2.6861,2.6897,2.6884,2.6916,2.6911,2.6907,2.6914,2.6979,2.6992,2.6955,2.707,2.7032,2.7041,2.7059,2.7071,2.708,2.7077,2.6918,0,0,0,0,0,2.6765,2.6801,2.6815,2.6872,2.6884,2.6889,2.691,2.6905,2.6929,2.6939,2.6954,2.698,2.702,2.7046,2.7083,2.7159,2.7166,2.7194,2.7203,2.7211,2.722,2.7263,2.7277,2.7135,2.7134,2.7134,0,0,2.6801,2.6815,2.6838,2.6881,2.6898,2.6938,2.6897,2.694,2.6971,2.6946,2.7006,2.7018,2.7047,2.7117,2.7148,2.713,2.726,2.7219,2.7225,2.7229,2.7271,2.7284,2.7296,2.7139,2.7138,2.7137,0,0,2.6886,2.6899,2.6948,2.6966,2.6991,2.6994,2.7006,2.7028,2.7035,2.7093,2.7076,2.7114,2.7181,2.7203,2.7224,2.7319,2.7305,2.7331,2.7382,2.7424,2.7436,2.7446,2.7482,2.7495,2.7339,2.7339,2.7339,0,2.6927,2.6984,2.6976,2.7021,2.7042,2.7019,2.7071,2.7089,2.7127,2.7143,2.7121,2.7206,2.7224,2.73,2.7323,2.7339,2.7355,2.7328,2.7434,2.7444,2.7453,2.7488,2.7501,2.7342,2.7342,2.7342,2.7341,0,2.7036,2.7076,2.7113,2.7147,2.7172,2.7221,2.7223,2.7249,2.7243,2.7249,2.7311,2.7332,2.7374,2.7391,2.7385,2.7467,2.7455,2.7434,2.7396,2.747,2.7503,2.7516,2.7347,2.7346,2.7345,2.7344,0,0,2.7149,2.7178,2.7193,2.7209,2.7236,2.7268,2.7317,2.7355,2.7379,2.7406,2.7449,2.7507,2.7488,2.7511,2.7508,2.7545,2.7622,2.7519,2.752,2.754,2.7716,2.7733,2.7749,2.7612,2.7615,2.7617,2.7714,0,2.7238,2.732,2.7315,2.7393,2.7432,2.7412,2.7455,2.7477,2.7485,2.7521,2.7531,2.7572,2.7542,2.7557,2.7592,2.7605,2.7658,2.7597,2.7656,2.7658,2.765,2.7765,2.7783,2.7874,2.7727,2.7729,2.7731,0,2.7352,2.7381,2.7463,2.7485,2.7501,2.7539,2.7576,2.7609,2.7636,2.7639,2.7665,2.7656,2.7709,2.7668,2.7742,2.7702,2.7725,2.7735,2.7739,2.7745,2.77,2.7777,2.7903,2.7917,2.775,2.7749,2.7747,0,2.7429,2.7489,2.7546,2.7561,2.7588,2.7615,2.7629,2.7652,2.7677,2.7709,2.7725,2.7764,2.7786,2.7818,2.7821,2.7791,2.7897,2.7856,2.7904,2.7904,2.7929,2.7927,2.8062,2.7941,2.794,2.794,2.794,0,2.753,2.7581,2.7582,2.7617,2.7675,2.767,2.7729,2.7739,2.7761,2.7801,2.7786,2.7824,2.7825,2.7865,2.7868,2.793,2.794,2.7946,2.7947,2.7949,2.7948,2.7965,2.796,2.7944,2.7943,2.7942,2.7942,0,2.7627,2.7628,2.769,2.771,2.7717,2.7759,2.7778,2.7813,2.7819,2.787,2.7881,2.7892,2.7938,2.7944,2.7999,2.8001,2.8077,2.807,2.8067,2.8067,2.8115,2.8112,2.8267,2.8288,2.8152,2.8153,2.8154,0,2.7691,2.7731,2.7755,2.7779,2.7793,2.7833,2.7857,2.7854,2.788,2.7914,2.7947,2.799,2.8026,2.8101,2.8116,2.8158,2.8153,2.8205,2.816,2.8161,2.8157,2.8155,2.816,2.8214,2.8216,2.8217,2.8218,0,2.7807,2.7806,2.784,2.7876,2.7905,2.7933,2.7959,2.7981,2.7982,2.8013,2.8058,2.8086,2.8141,2.8186,2.8228,2.8245,2.8233,2.8232,2.8246,2.8249,2.8246,2.825,2.8093,2.8229,2.8228,2.8227,2.8226,2.8226,2.7892,2.7926,2.7949,2.7988,2.8007,2.8033,2.8067,2.8077,2.8115,2.8158,2.8154,2.8206,2.8234,2.8288,2.8308,2.835,2.8334,2.8353,2.8358,2.8364,2.8369,2.8238,2.8358,2.8357,2.8357,2.8357,2.8357,0,2.8008,2.8022,2.8058,2.8095,2.8127,2.811,2.8139,2.8167,2.8212,2.8237,2.8272,2.8326,2.837,2.8388,2.8432,2.8463,2.8459,2.8475,2.8474,2.8478,2.8381,2.8365,2.8477,2.8477,2.8477,2.8477,2.8477,2.8477,2.8073,2.8131,2.8133,2.8202,2.8216,2.8264,2.8282,2.8307,2.8327,2.8388,2.8423,2.8434,2.8458,2.8503,2.8544,2.8548,2.8566,2.8585,2.8588,2.8497,2.8485,2.8473,2.8459,2.8589,2.8589,2.8682,2.8683,2.8683]},{"header":{"parameterUnit":"m.s-1","parameterCategory":1,"la1":30.2991,"la2":30.254,"lo1":-89.0895,"lo2":-89.0444,"dy":0.0017,"dx":0.0017,"nx":28,"ny":28,"refTime":"2023-08-08T21:00:00:Z","depth":0,"parameterNumber":3,"parameterNumberName":"V-component_of_WINDS"},"data":[0,0,0,0,0,0,0,0,0,0,0,0,0,0,0,0,0,0,0,0,0,0,0,0,0,0,0,0,0,0,0,0,0,0,0,0,0,0,0,0,0,0,0,0,0,0,0,0,0,0,0,0,0,0,0,0,0,0,0.6811,0.6812,0,0.6845,0.6846,0.6846,0.6856,0.6856,0.6856,0.6856,0.6889,0.689,0.6891,0,0,0,0,0,0,0,0,0,0,0,0,0,0.6752,0.6753,0.6811,0.6812,0.6812,0.6845,0.6846,0.6846,0.6856,0.6856,0.6856,0.6856,0.6888,0.689,0.6891,0,0,0,0,0,0,0,0,0,0,0,0,0,0.6781,0.6753,0.6811,0.6821,0.6823,0.6845,0.6846,0.6846,0.6856,0.6856,0.6856,0.6856,0.6888,0.689,0.6891,0.6905,0,0,0.6896,0.6896,0,0,0,0,0,0,0,0,0.6779,0.6783,0.6819,0.6821,0.6822,0.6846,0.6837,0.6866,0.6856,0.6844,0.6856,0.6856,0.6875,0.6877,0.6884,0.6907,0.6908,0.6896,0.6897,0.6898,0.6898,0,0,0,0,0,0,0,0.6777,0.6782,0.6825,0.682,0.6822,0.6823,0.6827,0.6842,0.686,0.6845,0.6845,0.6849,0.6875,0.6883,0.6885,0.6909,0.6896,0.6897,0.6898,0.6899,0.6942,0.6942,0,0,0,0,0,0,0.6774,0.678,0.6824,0.6826,0.68,0.6824,0.6828,0.6839,0.686,0.6863,0.685,0.685,0.688,0.6883,0.6886,0.6903,0.6897,0.6899,0.69,0.6942,0.6942,0.6942,0,0,0,0,0,0,0.6772,0.6778,0.6822,0.6803,0.6809,0.6825,0.6837,0.684,0.6847,0.6864,0.6867,0.6854,0.688,0.6884,0.69,0.6904,0.69,0.6901,0.6941,0.6942,0.6942,0.6937,0,0,0,0,0,0,0.6771,0.6777,0.6784,0.6803,0.681,0.6837,0.6837,0.684,0.685,0.685,0.6869,0.6871,0.688,0.6898,0.6902,0.6906,0.6902,0.6941,0.6942,0.6942,0.6937,0.6937,0.6937,0,0,0,0,0,0.6769,0.6781,0.6784,0.679,0.6819,0.6837,0.6841,0.6851,0.685,0.6856,0.6866,0.6871,0.6903,0.6899,0.6904,0.6909,0.6941,0.6941,0.6942,0.6936,0.6937,0.6937,0,0,0,0,0,0,0.6763,0.6784,0.6788,0.6807,0.682,0.6839,0.6847,0.6851,0.6865,0.6865,0.6876,0.688,0.6895,0.6903,0.6899,0.6922,0.6922,0.6923,0.6916,0.6917,0.6917,0.6914,0.6904,0,0,0,0,0,0.6763,0.6777,0.6795,0.6811,0.6817,0.6831,0.6839,0.6846,0.6859,0.6865,0.6876,0.6889,0.6901,0.6909,0.6922,0.6938,0.694,0.6943,0.6943,0.6943,0.6944,0.695,0.6951,0.6944,0.6944,0.6944,0,0,0.6766,0.6779,0.6787,0.681,0.6821,0.6833,0.6835,0.6849,0.6858,0.6867,0.6882,0.6891,0.6905,0.692,0.6927,0.6928,0.6947,0.6944,0.6944,0.6945,0.6951,0.6952,0.6952,0.6944,0.6944,0.6944,0,0,0.6776,0.6788,0.6801,0.6811,0.6827,0.6836,0.6839,0.6856,0.6862,0.6878,0.6884,0.6894,0.6916,0.6925,0.6933,0.6943,0.6946,0.6946,0.6947,0.6953,0.6954,0.6955,0.6957,0.6957,0.6947,0.6947,0.6947,0,0.6777,0.6797,0.6807,0.682,0.6829,0.6836,0.6848,0.6858,0.6877,0.6882,0.6882,0.6908,0.6918,0.6935,0.6937,0.6943,0.6945,0.6945,0.6953,0.6954,0.6954,0.6956,0.6957,0.6947,0.6947,0.6947,0.6947,0,0.6795,0.6809,0.6817,0.6835,0.6845,0.6857,0.6868,0.6876,0.6881,0.6889,0.6903,0.6915,0.6929,0.6934,0.6939,0.695,0.6949,0.6951,0.6951,0.6955,0.6957,0.6958,0.6947,0.6947,0.6947,0.6947,0,0,0.6805,0.6826,0.6829,0.6836,0.6852,0.6863,0.6874,0.6888,0.6894,0.6906,0.6914,0.6931,0.6932,0.6941,0.6947,0.6952,0.6957,0.6953,0.6954,0.6952,0.6967,0.6965,0.6966,0.6959,0.696,0.696,0.6966,0,0.6816,0.6838,0.6846,0.6863,0.6874,0.688,0.689,0.69,0.6907,0.6917,0.6924,0.6936,0.6937,0.6942,0.6947,0.6955,0.696,0.6955,0.6966,0.6967,0.6962,0.6968,0.6966,0.6972,0.6967,0.6967,0.6967,0,0.6833,0.6844,0.6862,0.6875,0.688,0.6889,0.69,0.691,0.6921,0.6925,0.6933,0.6939,0.6949,0.6948,0.6961,0.6957,0.6962,0.6967,0.6967,0.6968,0.6967,0.6968,0.6974,0.6974,0.6969,0.6969,0.6968,0,0.6835,0.6855,0.6868,0.6874,0.689,0.6895,0.6902,0.6913,0.6919,0.6929,0.6933,0.6944,0.695,0.6958,0.6965,0.6964,0.6977,0.6977,0.698,0.698,0.6983,0.6982,0.6988,0.6987,0.6987,0.6987,0.6987,0,0.6847,0.6857,0.6869,0.6877,0.6888,0.6896,0.6907,0.6914,0.6922,0.693,0.6936,0.6943,0.6953,0.6961,0.6966,0.6975,0.6978,0.6981,0.6982,0.6981,0.698,0.6984,0.6983,0.6987,0.6987,0.6987,0.6987,0,0.6852,0.6861,0.6874,0.6887,0.6891,0.6898,0.6909,0.6915,0.6922,0.6932,0.6935,0.6944,0.6954,0.6962,0.6974,0.6978,0.6987,0.6989,0.6983,0.6984,0.6986,0.6985,0.6994,0.6995,0.6993,0.6993,0.6993,0,0.6858,0.6866,0.6879,0.6885,0.6892,0.6901,0.6908,0.6915,0.6922,0.6933,0.6938,0.6948,0.6956,0.697,0.6978,0.6987,0.6989,0.6991,0.699,0.6987,0.6987,0.6987,0.6987,0.6991,0.6991,0.6991,0.6991,0,0.6868,0.6871,0.6881,0.6891,0.6898,0.6907,0.6915,0.692,0.6929,0.6935,0.6945,0.6951,0.6963,0.6972,0.6981,0.6987,0.699,0.6991,0.6992,0.699,0.6986,0.6987,0.6983,0.6991,0.6991,0.6991,0.6991,0.6991,0.6873,0.688,0.6889,0.6899,0.6906,0.6913,0.6919,0.6926,0.6934,0.6945,0.6948,0.6958,0.6966,0.6979,0.6984,0.699,0.6991,0.6993,0.6993,0.6993,0.6992,0.6985,0.6992,0.6992,0.6992,0.6992,0.6992,0,0.6882,0.6888,0.6897,0.6908,0.6915,0.6917,0.6926,0.6931,0.6939,0.6947,0.6954,0.6964,0.6972,0.698,0.6988,0.6992,0.6993,0.6993,0.6993,0.6994,0.6992,0.699,0.6992,0.6992,0.6992,0.6992,0.6992,0.6992,0.6888,0.6898,0.6902,0.6915,0.692,0.6929,0.6934,0.694,0.6946,0.6956,0.6963,0.6968,0.6975,0.6983,0.699,0.6992,0.6994,0.6994,0.6996,0.6994,0.6994,0.6994,0.6992,0.6995,0.6995,0.6998,0.6998,0.6998]}]]